Time,TemperatureF,DewpointF,PressureIn,WindDirection,WindDirectionDegrees,WindSpeedMPH,WindSpeedGustMPH,Humidity,HourlyPrecipIn,Conditions,Clouds,dailyrainin,SoftwareType,DateUTC
2013-04-28 00:12:00,70.5,33.0,29.70,SSE,157,0.0,-999.0,25,-99.99,,,0.00,Acu-Link.com,2013-04-28 05:12:00,
2013-04-28 00:28:00,70.5,-34.5,29.70,SSW,202,0.0,-999.0,1,-99.99,,,0.00,Acu-Link.com,2013-04-28 05:28:00,
2013-04-28 00:43:00,70.7,-34.4,29.70,WSW,247,0.0,-999.0,1,-99.99,,,0.00,Acu-Link.com,2013-04-28 05:43:00,
2013-04-28 00:58:00,70.7,-34.4,29.69,South,180,1.1,-999.0,1,-99.99,,,0.00,Acu-Link.com,2013-04-28 05:58:00,
2013-04-28 01:13:00,70.7,-34.4,29.69,SSW,202,1.7,-999.0,1,-99.99,,,0.00,Acu-Link.com,2013-04-28 06:13:00,
2013-04-28 01:29:00,70.7,-34.4,29.68,SSE,157,1.1,-999.0,1,-99.99,,,0.00,Acu-Link.com,2013-04-28 06:29:00,
2013-04-28 01:44:00,70.7,-34.4,29.67,SSE,157,3.7,-999.0,1,-99.99,,,0.00,Acu-Link.com,2013-04-28 06:44:00,
2013-04-28 01:59:00,70.9,-34.3,29.66,SSE,157,4.7,-999.0,1,-99.99,,,0.00,Acu-Link.com,2013-04-28 06:59:00,
2013-04-28 02:15:00,71.1,-34.2,29.68,South,180,2.7,-999.0,1,-99.99,,,0.00,Acu-Link.com,2013-04-28 07:15:00,
2013-04-28 02:30:00,71.1,-34.2,29.67,SSW,202,2.2,-999.0,1,-99.99,,,0.00,Acu-Link.com,2013-04-28 07:30:00,
2013-04-28 02:45:00,71.1,-34.2,29.67,SW,225,2.7,-999.0,1,-99.99,,,0.00,Acu-Link.com,2013-04-28 07:45:00,
2013-04-28 03:01:00,71.2,-34.1,29.67,SW,225,2.2,-999.0,1,-99.99,,,0.00,Acu-Link.com,2013-04-28 08:01:00,
2013-04-28 03:16:00,71.2,-34.1,29.67,South,180,1.7,-999.0,1,-99.99,,,0.00,Acu-Link.com,2013-04-28 08:16:00,
2013-04-28 03:31:00,71.2,-34.1,29.67,WSW,247,3.7,-999.0,1,-99.99,,,0.00,Acu-Link.com,2013-04-28 08:31:00,
2013-04-28 03:46:00,71.2,-34.1,29.67,WSW,247,3.7,-999.0,1,-99.99,,,0.00,Acu-Link.com,2013-04-28 08:46:00,
2013-04-28 04:01:00,71.1,-34.2,29.66,SW,225,3.7,-999.0,1,-99.99,,,0.00,Acu-Link.com,2013-04-28 09:01:00,
2013-04-28 04:16:00,70.9,-34.3,29.66,SSE,157,3.7,-999.0,1,-99.99,,,0.00,Acu-Link.com,2013-04-28 09:16:00,
2013-04-28 04:31:00,70.7,-34.4,29.66,SSW,202,2.2,-999.0,1,-99.99,,,0.00,Acu-Link.com,2013-04-28 09:31:00,
2013-04-28 04:47:00,70.5,-34.5,29.65,South,180,2.7,-999.0,1,-99.99,,,0.00,Acu-Link.com,2013-04-28 09:47:00,
2013-04-28 05:02:00,70.3,-34.6,29.65,South,180,2.7,-999.0,1,-99.99,,,0.00,Acu-Link.com,2013-04-28 10:02:00,
2013-04-28 05:17:00,70.3,-34.6,29.66,WSW,247,2.2,-999.0,1,-99.99,,,0.00,Acu-Link.com,2013-04-28 10:17:00,
2013-04-28 05:48:00,70.3,-34.6,29.66,SSW,202,4.2,-999.0,1,-99.99,,,0.00,Acu-Link.com,2013-04-28 10:48:00,
2013-04-28 06:03:00,70.3,-34.6,29.66,SW,225,4.7,-999.0,1,-99.99,,,0.00,Acu-Link.com,2013-04-28 11:03:00,
2013-04-28 06:18:00,70.3,-34.6,29.68,SW,225,4.7,-999.0,1,-99.99,,,0.00,Acu-Link.com,2013-04-28 11:18:00,
2013-04-28 06:34:00,70.5,-34.5,29.68,SSW,202,7.3,-999.0,1,-99.99,,,0.00,Acu-Link.com,2013-04-28 11:34:00,
2013-04-28 06:49:00,70.3,-34.6,29.69,SSW,202,6.3,-999.0,1,-99.99,,,0.00,Acu-Link.com,2013-04-28 11:49:00,
2013-04-28 07:04:00,70.3,-34.6,29.69,SW,225,6.8,-999.0,1,-99.99,,,0.00,Acu-Link.com,2013-04-28 12:04:00,
2013-04-28 07:19:00,70.2,-34.7,29.70,SSW,202,5.8,-999.0,1,-99.99,,,0.00,Acu-Link.com,2013-04-28 12:19:00,
2013-04-28 07:34:00,69.8,-34.9,29.70,WSW,247,4.7,-999.0,1,-99.99,,,0.00,Acu-Link.com,2013-04-28 12:34:00,
2013-04-28 07:49:00,69.8,-34.9,29.71,SSW,202,3.7,-999.0,1,-99.99,,,0.00,Acu-Link.com,2013-04-28 12:49:00,
2013-04-28 08:04:00,69.6,-35.1,29.70,SW,225,5.8,-999.0,1,-99.99,,,0.00,Acu-Link.com,2013-04-28 13:04:00,
2013-04-28 08:20:00,69.4,-35.2,29.70,WSW,247,2.7,-999.0,1,-99.99,,,0.00,Acu-Link.com,2013-04-28 13:20:00,
2013-04-28 08:35:00,69.1,-35.4,29.70,SSW,202,2.2,-999.0,1,-99.99,,,0.00,Acu-Link.com,2013-04-28 13:35:00,
2013-04-28 08:50:00,69.1,-35.4,29.70,WSW,247,1.7,-999.0,1,-99.99,,,0.00,Acu-Link.com,2013-04-28 13:50:00,
2013-04-28 09:05:00,69.1,-35.4,29.69,West,270,0.0,-999.0,1,-99.99,,,0.00,Acu-Link.com,2013-04-28 14:05:00,
2013-04-28 09:20:00,69.1,-35.4,29.69,South,180,0.0,-999.0,1,-99.99,,,0.01,Acu-Link.com,2013-04-28 14:20:00,
2013-04-28 09:36:00,69.1,-35.4,29.69,WNW,292,2.7,-999.0,1,-99.99,,,0.01,Acu-Link.com,2013-04-28 14:36:00,
2013-04-28 09:51:00,68.9,-35.5,29.68,WSW,247,6.3,-999.0,1,-99.99,,,0.01,Acu-Link.com,2013-04-28 14:51:00,
2013-04-28 10:06:00,68.9,-35.5,29.68,West,270,3.7,-999.0,1,-99.99,,,0.01,Acu-Link.com,2013-04-28 15:06:00,
2013-04-28 10:22:00,69.6,69.0,29.68,NW,315,3.7,-999.0,98,-99.99,,,0.01,Acu-Link.com,2013-04-28 15:22:00,
2013-04-28 10:37:00,70.0,-34.8,29.67,WNW,292,5.3,-999.0,1,-99.99,,,0.02,Acu-Link.com,2013-04-28 15:37:00,
2013-04-28 10:52:00,71.1,-34.2,29.69,WSW,247,4.7,-999.0,1,-99.99,,,0.02,Acu-Link.com,2013-04-28 15:52:00,
2013-04-28 11:08:00,72.5,-33.3,29.69,West,270,2.7,-999.0,1,-99.99,,,0.02,Acu-Link.com,2013-04-28 16:08:00,
2013-04-28 11:23:00,72.3,-33.4,29.69,SW,225,0.0,-999.0,1,-99.99,,,0.02,Acu-Link.com,2013-04-28 16:23:00,
2013-04-28 11:38:00,72.1,-33.6,29.69,WSW,247,0.0,-999.0,1,-99.99,,,0.02,Acu-Link.com,2013-04-28 16:38:00,
2013-04-28 11:53:00,71.4,-34.0,29.66,NNW,337,6.3,-999.0,1,-99.99,,,0.02,Acu-Link.com,2013-04-28 16:53:00,
2013-04-28 12:08:00,71.1,-34.2,29.66,NNW,337,6.3,-999.0,1,-99.99,,,0.02,Acu-Link.com,2013-04-28 17:08:00,
2013-04-28 12:24:00,71.1,-34.2,29.67,NNW,337,2.7,-999.0,1,-99.99,,,0.02,Acu-Link.com,2013-04-28 17:24:00,
2013-04-28 12:39:00,71.1,-34.2,29.67,SSE,157,5.3,-999.0,1,-99.99,,,0.02,Acu-Link.com,2013-04-28 17:39:00,
2013-04-28 12:54:00,71.1,-34.2,29.67,East,90,5.3,-999.0,1,-99.99,,,0.02,Acu-Link.com,2013-04-28 17:54:00,
2013-04-28 13:09:00,71.2,-34.1,29.67,ENE,67,5.3,-999.0,1,-99.99,,,0.02,Acu-Link.com,2013-04-28 18:09:00,
2013-04-28 13:25:00,71.2,-34.1,29.67,East,90,4.2,-999.0,1,-99.99,,,0.02,Acu-Link.com,2013-04-28 18:25:00,
2013-04-28 13:40:00,71.8,-33.7,29.66,SE,135,2.7,-999.0,1,-99.99,,,0.02,Acu-Link.com,2013-04-28 18:40:00,
2013-04-28 13:55:00,72.1,-33.6,29.66,ENE,67,5.3,-999.0,1,-99.99,,,0.02,Acu-Link.com,2013-04-28 18:55:00,
2013-04-28 14:11:00,72.7,-33.2,29.66,NNE,22,5.8,-999.0,1,-99.99,,,0.02,Acu-Link.com,2013-04-28 19:11:00,
2013-04-28 14:26:00,72.9,-33.1,29.66,SSE,157,2.2,-999.0,1,-99.99,,,0.02,Acu-Link.com,2013-04-28 19:26:00,
2013-04-28 14:41:00,73.4,-32.8,29.65,SE,135,3.7,-999.0,1,-99.99,,,0.02,Acu-Link.com,2013-04-28 19:41:00,
2013-04-28 14:56:00,73.9,-32.5,29.65,SSE,157,2.2,-999.0,1,-99.99,,,0.02,Acu-Link.com,2013-04-28 19:56:00,
2013-04-28 15:12:00,74.8,-31.9,29.64,SE,135,0.0,-999.0,1,-99.99,,,0.02,Acu-Link.com,2013-04-28 20:12:00,
2013-04-28 15:27:00,75.2,-31.7,29.63,SSE,157,2.7,-999.0,1,-99.99,,,0.02,Acu-Link.com,2013-04-28 20:27:00,
2013-04-28 15:42:00,75.2,-31.7,29.61,East,90,5.8,-999.0,1,-99.99,,,0.02,Acu-Link.com,2013-04-28 20:42:00,
2013-04-28 15:57:00,75.9,-31.3,29.61,SW,225,2.7,-999.0,1,-99.99,,,0.02,Acu-Link.com,2013-04-28 20:57:00,
2013-04-28 16:13:00,76.3,-31.0,29.60,NE,45,0.0,-999.0,1,-99.99,,,0.02,Acu-Link.com,2013-04-28 21:13:00,
2013-04-28 16:28:00,74.5,-32.1,29.61,NW,315,2.2,-999.0,1,-99.99,,,0.02,Acu-Link.com,2013-04-28 21:28:00,
2013-04-28 16:43:00,74.1,-32.4,29.61,North,0,5.3,-999.0,1,-99.99,,,0.02,Acu-Link.com,2013-04-28 21:43:00,
2013-04-28 16:59:00,72.9,-33.1,29.62,NNW,337,4.2,-999.0,1,-99.99,,,0.02,Acu-Link.com,2013-04-28 21:59:00,
2013-04-28 17:14:00,72.9,-33.1,29.62,NNE,22,3.2,-999.0,1,-99.99,,,0.02,Acu-Link.com,2013-04-28 22:14:00,
2013-04-28 17:29:00,73.0,-33.0,29.62,North,0,2.7,-999.0,1,-99.99,,,0.02,Acu-Link.com,2013-04-28 22:29:00,
2013-04-28 17:44:00,73.6,-32.7,29.62,NNE,22,4.2,-999.0,1,-99.99,,,0.02,Acu-Link.com,2013-04-28 22:44:00,
2013-04-28 18:00:00,73.2,-32.9,29.62,NNE,22,3.7,-999.0,1,-99.99,,,0.02,Acu-Link.com,2013-04-28 23:00:00,
2013-04-28 18:15:00,73.4,-32.8,29.61,West,270,0.0,-999.0,1,-99.99,,,0.02,Acu-Link.com,2013-04-28 23:15:00,
2013-04-28 18:30:00,73.8,-32.5,29.60,North,0,2.7,-999.0,1,-99.99,,,0.02,Acu-Link.com,2013-04-28 23:30:00,
2013-04-28 18:46:00,73.6,-32.7,29.61,NNE,22,2.7,-999.0,1,-99.99,,,0.02,Acu-Link.com,2013-04-28 23:46:00,
2013-04-28 19:01:00,73.9,-32.5,29.59,NE,45,3.2,-999.0,1,-99.99,,,0.02,Acu-Link.com,2013-04-29 00:01:00,
2013-04-28 19:16:00,73.2,-32.9,29.60,ENE,67,3.2,-999.0,1,-99.99,,,0.02,Acu-Link.com,2013-04-29 00:16:00,
2013-04-28 19:31:00,72.1,-33.6,29.60,ENE,67,2.7,-999.0,1,-99.99,,,0.02,Acu-Link.com,2013-04-29 00:31:00,
2013-04-28 19:47:00,70.9,-34.3,29.60,East,90,1.1,-999.0,1,-99.99,,,0.02,Acu-Link.com,2013-04-29 00:47:00,
2013-04-28 20:02:00,69.8,-34.9,29.60,South,180,0.0,-999.0,1,-99.99,,,0.02,Acu-Link.com,2013-04-29 01:02:00,
2013-04-28 20:17:00,69.1,-35.4,29.61,East,90,0.0,-999.0,1,-99.99,,,0.02,Acu-Link.com,2013-04-29 01:17:00,
2013-04-28 20:32:00,68.2,-35.9,29.62,West,270,0.0,-999.0,1,-99.99,,,0.02,Acu-Link.com,2013-04-29 01:32:00,
2013-04-28 20:48:00,67.5,-36.3,29.62,West,270,0.0,-999.0,1,-99.99,,,0.02,Acu-Link.com,2013-04-29 01:48:00,
2013-04-28 21:03:00,67.1,-36.6,29.62,West,270,0.0,-999.0,1,-99.99,,,0.02,Acu-Link.com,2013-04-29 02:03:00,
2013-04-28 21:18:00,66.2,50.5,29.62,West,270,0.0,-999.0,57,-99.99,,,0.02,Acu-Link.com,2013-04-29 02:18:00,
2013-04-28 21:34:00,66.0,-24.7,29.62,NNE,22,1.1,-999.0,2,-99.99,,,0.02,Acu-Link.com,2013-04-29 02:34:00,
2013-04-28 21:49:00,65.7,28.9,29.63,NW,315,0.0,-999.0,25,-99.99,,,0.02,Acu-Link.com,2013-04-29 02:49:00,
2013-04-28 22:04:00,65.5,-37.5,29.63,NW,315,0.0,-999.0,1,-99.99,,,0.02,Acu-Link.com,2013-04-29 03:04:00,
2013-04-28 22:20:00,65.3,-37.6,29.64,South,180,0.0,-999.0,1,-99.99,,,0.02,Acu-Link.com,2013-04-29 03:20:00,
2013-04-28 22:35:00,64.9,57.5,29.64,SW,225,0.0,-999.0,77,-99.99,,,0.02,Acu-Link.com,2013-04-29 03:35:00,
2013-04-28 22:50:00,65.3,-37.6,29.64,SSW,202,0.0,-999.0,1,-99.99,,,0.02,Acu-Link.com,2013-04-29 03:50:00,
2013-04-28 23:05:00,64.6,-38.1,29.64,SW,225,0.0,-999.0,1,-99.99,,,0.02,Acu-Link.com,2013-04-29 04:05:00,
2013-04-28 23:21:00,64.4,-38.2,29.63,ENE,67,0.0,-999.0,1,-99.99,,,0.02,Acu-Link.com,2013-04-29 04:21:00,
2013-04-28 23:36:00,64.2,-38.3,29.64,NNE,22,0.0,-999.0,1,-99.99,,,0.02,Acu-Link.com,2013-04-29 04:36:00,
2013-04-28 23:51:00,64.4,-38.2,29.63,SSE,157,0.0,-999.0,1,-99.99,,,0.02,Acu-Link.com,2013-04-29 04:51:00,